Flight Track Log - Related Links

Times and Time Zones

All times are in EDT time to prevent confusion due to time zone crossing. See the LOF3416 flight status page for this flight to view local times or setup timezone preferences in your user account.

Time Position Orientation Groundspeed Altitude Reporting Facility
EDT Latitude Longitude Course Direction KTS MPH feet Rate Location/Type
07:52PM 37.3969 -93.2400 14° North 270 311 10,300  Level Kansas City Center
07:53PM 37.4647 -93.1908 30° Northeast 281 323 12,400 1,790 Climbing Kansas City Center
07:54PM 37.5303 -93.1275 37° Northeast 292 336 14,000 1,536 Climbing Kansas City Center
07:55PM 37.7335 -92.9333 38° Northeast  Level FlightAware Approximate
07:55PM 37.6028 -93.0611 36° Northeast 311 358 15,600  Level Kansas City Center
07:56PM 37.8141 -92.8527 38° Northeast  Level FlightAware Approximate
07:56PM 37.6792 -92.9928 35° Northeast 328 377 17,200  Level Kansas City Center
07:57PM 37.7572 -92.9203 36° Northeast 337 388 18,400 1,355 Climbing Kansas City Center
07:58PM 37.8386 -92.8472 35° Northeast 350 403 20,000 1,537 Climbing Kansas City Center
07:59PM 37.9203 -92.7717 36° Northeast 359 413 21,500 1,659 Climbing Kansas City Center
08:00PM 38.0161 -92.6831 36° Northeast 365 420 23,400 1,632 Climbing Kansas City Center
08:01PM 38.0992 -92.6072 36° Northeast 368 423 24,900 1,500 Climbing Kansas City Center
08:02PM 38.1828 -92.5300 36° Northeast 371 427 26,500 1,016 Climbing Kansas City Center
08:03PM 38.2786 -92.4422 36° Northeast 384 442 27,000 242 Climbing Kansas City Center
08:04PM 38.3736 -92.3528 36° Northeast 411 473 27,000  Level Kansas City Center
08:05PM 38.4753 -92.2586 36° Northeast 438 504 27,000  Level Kansas City Center
08:06PM 38.5781 -92.1603 37° Northeast 455 524 27,000  Level Kansas City Center
08:07PM 38.6839 -92.0625 36° Northeast 464 534 27,000  Level Kansas City Center
08:08PM 38.7897 -91.9617 37° Northeast 471 542 27,000  Level Kansas City Center
08:09PM 38.9161 -91.8419 36° Northeast 469 540 27,000  Level Kansas City Center
08:10PM 39.0228 -91.7419 36° Northeast 472 543 27,000  Level Kansas City Center
08:11PM 39.1147 -91.6539 37° Northeast 470 541 27,000  Level Kansas City Center
08:12PM 39.2192 -91.5542 36° Northeast 468 539 27,000  Level Kansas City Center
08:13PM 39.3453 -91.4331 37° Northeast 469 540 27,000  Level Kansas City Center
08:14PM 39.4503 -91.3311 37° Northeast 471 542 27,000  Level Kansas City Center
08:15PM 39.5536 -91.2314 37° Northeast 467 537 27,000  Level Kansas City Center
08:17PM 39.6561 -91.1317 37° Northeast 462 532 27,000  Level Kansas City Center
08:18PM 39.7606 -91.0297 37° Northeast 461 531 27,000  Level Kansas City Center
08:19PM 39.8725 -90.9181 37° Northeast 462 532 27,000  Level Kansas City Center
08:20PM 39.9742 -90.8142 38° Northeast 462 532 27,000  Level Kansas City Center
08:21PM 40.0758 -90.7103 38° Northeast 463 533 27,000  Level Kansas City Center
08:22PM 40.1778 -90.6058 38° Northeast 466 536 27,000  Level Kansas City Center
08:23PM 40.2822 -90.5008 37° Northeast 468 539 27,000  Level Kansas City Center
08:24PM 40.3853 -90.3956 38° Northeast 469 540 27,000  Level Chicago Center
08:25PM 40.5086 -90.2681 38° Northeast 469 540 27,000  Level Chicago Center
08:26PM 40.6003 -90.1753 38° Northeast 471 542 27,000 -290 Level Chicago Center
08:27PM 40.7219 -90.0494 38° Northeast 465 535 26,400 -532 Descending Chicago Center
08:28PM 40.8239 -89.9458 38° Northeast 465 535 25,900 -484 Descending Chicago Center
08:29PM 40.9175 -89.8392 41° Northeast 450 518 25,400 -532 Descending Chicago Center
08:30PM 41.0242 -89.7322 37° Northeast 463 533 24,800 -532 Descending Chicago Center
08:31PM 41.1131 -89.6119 46° Northeast 454 522 24,300 -816 Descending Chicago Center
08:32PM 41.1781 -89.4672 59° Northeast 454 522 23,100 -1,776 Descending Chicago Center
08:33PM 41.2408 -89.3272 59° Northeast 442 509 20,600 -2,565 Descending Chicago Center
08:34PM 41.3081 -89.1733 60° Northeast 419 482 17,800 -2,371 Descending Chicago Center
08:35PM 41.3642 -89.0439 60° Northeast 405 466 15,700 -2,032 Descending Chicago Center
08:36PM 41.4192 -88.9169 60° Northeast 400 460 13,600 -2,226 Descending Chicago Center
08:37PM 41.4844 -88.7703 59° Northeast 384 442 11,100 -1,210 Descending Chicago Center
08:38PM 41.5336 -88.6514 61° Northeast 370 426 11,100  Level Chicago Center
08:39PM 41.5819 -88.5289 62° Northeast 374 430 11,100 -194 Level Chicago Center
08:40PM 41.6394 -88.4131 56° Northeast 375 432 10,700 -532 Descending Chicago Center
08:41PM 41.7022 -88.3036 52° Northeast 371 427 10,000 -339 Descending Chicago Center
08:42PM 41.7642 -88.2011 51° Northeast 355 409 10,000 -528 Level Chicago Center
08:43PM 41.8233 -88.0967 53° Northeast 288 331 8,900 -1,248 Descending Chicago Center
08:44PM 41.8697 -88.0131 53° Northeast 280 322 7,400 -934 Descending Chicago Center
08:45PM 41.8833 -87.9167 79° East 278 320 7,000 -350 Descending Chicago TRACON
08:46PM 41.8833 -87.8333 90° East 215 247 6,700 -667 Descending Chicago TRACON
08:48PM 41.8842 -87.7544 89° East 209 241 5,600 -1,078 Descending Chicago Center
08:49PM 41.9256 -87.7342 20° North 213 245 4,400 -1,548 Descending Chicago Center
08:50PM 41.9647 -87.7958 311° West 194 223 2,400 -1,548 Descending Chicago Center
08:51PM 41.9694 -87.8467 277° West 162 186 1,200 -629 Descending Chicago Center
08:52PM 41.9683 -87.8933 268° West 155 178 1,100 -97 Descending Chicago Center
08:54PM 41.9667 -87.9000 307° West  Level FlightAware Approximate

Login

Don't have an account? Register now (free) for customized features, flight alerts, and more!